Hourly Weather Alle

Today, 26 February, Friday

Time Temperature Precipitation Wind Pressure Humidity
00:00 +8°C° 0 mm 1 mps 717 mmHg 67%
01:00 +8°C° 0 mm 1 mps 717 mmHg 69%
02:00 +8°C° 0 mm 1 mps 717 mmHg 70%
03:00 +7°C° 0 mm 1 mps 717 mmHg 71%
04:00 +7°C° 0 mm 1 mps 717 mmHg 73%
05:00 +7°C° 0 mm 1 mps 717 mmHg 75%
06:00 +6°C° 0 mm 1 mps 717 mmHg 77%
07:00 +8°C° 0 mm 1 mps 717 mmHg 74%
08:00 +9°C° 0 mm 1 mps 717 mmHg 71%
09:00 +11°C° 0 mm 1 mps 717 mmHg 68%
10:00 +12°C° 0 mm 1 mps 717 mmHg 67%
11:00 +13°C° 0 mm 1 mps 717 mmHg 66%
12:00 +14°C° 0 mm 2 mps 717 mmHg 65%
13:00 +13°C° 0.1 mm 1 mps 717 mmHg 68%
14:00 +13°C° 0.1 mm 1 mps 716 mmHg 70%
15:00 +13°C° 0.1 mm 1 mps 716 mmHg 73%
16:00 +10°C° 0.4 mm 2 mps 716 mmHg 80%
17:00 +9°C° 0.4 mm 2 mps 716 mmHg 87%
18:00 +8°C° 0.4 mm 3 mps 716 mmHg 94%
19:00 +7°C° 0.7 mm 3 mps 717 mmHg 94%
20:00 +7°C° 0.7 mm 3 mps 717 mmHg 94%
21:00 +5°C° 0.7 mm 3 mps 717 mmHg 93%
22:00 +5°C° 0.1 mm 3 mps 717 mmHg 92%
23:00 +4°C° 0.1 mm 3 mps 717 mmHg 90%

Tomorrow, 27 February, Saturday

Time Temperature Precipitation Wind Pressure Humidity
00:00 +4°C° 0.1 mm 3 mps 718 mmHg 88%
01:00 +4°C° 0 mm 3 mps 717 mmHg 89%
02:00 +3°C° 0 mm 4 mps 717 mmHg 89%
03:00 +3°C° 0 mm 4 mps 717 mmHg 90%
04:00 +1°C° 0 mm 4 mps 717 mmHg 89%
05:00 +1°C° 0 mm 4 mps 717 mmHg 89%
06:00 0°C° 0 mm 4 mps 717 mmHg 89%
07:00 +1°C° 0 mm 4 mps 717 mmHg 87%
08:00 +1°C° 0 mm 4 mps 717 mmHg 85%
09:00 +1°C° 0 mm 5 mps 717 mmHg 83%
10:00 +2°C° 0 mm 5 mps 717 mmHg 79%
11:00 +3°C° 0 mm 5 mps 717 mmHg 76%
12:00 +3°C° 0 mm 5 mps 717 mmHg 72%
13:00 +5°C° 0 mm 5 mps 717 mmHg 69%
14:00 +4°C° 0 mm 6 mps 717 mmHg 66%
15:00 +5°C° 0 mm 6 mps 717 mmHg 63%
16:00 +3°C° 0 mm 5 mps 717 mmHg 66%
17:00 +3°C° 0 mm 4 mps 716 mmHg 70%
18:00 +1°C° 0 mm 4 mps 716 mmHg 74%
19:00 0°C° 0 mm 4 mps 716 mmHg 77%
20:00 0°C° 0 mm 4 mps 717 mmHg 79%
21:00 -1°C° 0 mm 4 mps 717 mmHg 81%
22:00 0°C° 0 mm 3 mps 716 mmHg 83%
23:00 0°C° 0 mm 3 mps 716 mmHg 85%

Day after tomorrow, 28 February, Sunday

Time Temperature Precipitation Wind Pressure Humidity
00:00 -1°C° 0 mm 3 mps 716 mmHg 87%
01:00 -1°C° 0 mm 3 mps 716 mmHg 89%
02:00 -1°C° 0 mm 3 mps 716 mmHg 90%
03:00 -2°C° 0 mm 2 mps 715 mmHg 92%
04:00 -1°C° 0 mm 2 mps 716 mmHg 91%
05:00 -1°C° 0 mm 2 mps 716 mmHg 91%
06:00 -1°C° 0 mm 2 mps 716 mmHg 91%
07:00 +1°C° 0 mm 2 mps 716 mmHg 86%
08:00 +2°C° 0 mm 2 mps 716 mmHg 82%
09:00 +3°C° 0 mm 2 mps 716 mmHg 77%
10:00 +4°C° 0 mm 2 mps 716 mmHg 72%
11:00 +6°C° 0 mm 2 mps 716 mmHg 68%
12:00 +7°C° 0 mm 2 mps 716 mmHg 64%
13:00 +7°C° 0 mm 2 mps 716 mmHg 65%
14:00 +7°C° 0 mm 2 mps 716 mmHg 65%
15:00 +7°C° 0 mm 2 mps 715 mmHg 66%
16:00 +6°C° 0 mm 2 mps 715 mmHg 72%
17:00 +4°C° 0 mm 2 mps 715 mmHg 79%
18:00 +3°C° 0 mm 2 mps 715 mmHg 85%
19:00 +4°C° 0 mm 1 mps 715 mmHg 85%
20:00 +3°C° 0 mm 1 mps 715 mmHg 85%
21:00 +3°C° 0 mm 1 mps 715 mmHg 86%
22:00 +3°C° 0 mm 1 mps 715 mmHg 85%
23:00 +3°C° 0 mm 1 mps 715 mmHg 85%

1 March, Monday

Time Temperature Precipitation Wind Pressure Humidity
00:00 +3°C° 0 mm 1 mps 715 mmHg 85%
01:00 +3°C° 0 mm 1 mps 715 mmHg 86%
02:00 +2°C° 0 mm 1 mps 715 mmHg 86%
03:00 +2°C° 0 mm 1 mps 715 mmHg 86%
04:00 +2°C° 0 mm 1 mps 715 mmHg 86%
05:00 +2°C° 0 mm 1 mps 715 mmHg 86%
06:00 +2°C° 0 mm 1 mps 715 mmHg 86%
07:00 +4°C° 0 mm 1 mps 715 mmHg 80%
08:00 +6°C° 0 mm 1 mps 715 mmHg 75%
09:00 +8°C° 0 mm 1 mps 716 mmHg 69%
10:00 +9°C° 0 mm 1 mps 716 mmHg 65%
11:00 +11°C° 0 mm 1 mps 716 mmHg 61%
12:00 +12°C° 0 mm 2 mps 716 mmHg 57%
13:00 +12°C° 0 mm 2 mps 716 mmHg 58%
14:00 +12°C° 0 mm 2 mps 715 mmHg 59%
15:00 +12°C° 0 mm 2 mps 715 mmHg 60%
16:00 +9°C° 0 mm 2 mps 715 mmHg 68%
17:00 +8°C° 0 mm 1 mps 715 mmHg 76%
18:00 +6°C° 0 mm 1 mps 715 mmHg 84%
19:00 +6°C° 0 mm 1 mps 715 mmHg 84%
20:00 +5°C° 0 mm 1 mps 716 mmHg 84%
21:00 +5°C° 0 mm 1 mps 716 mmHg 84%
22:00 +5°C° 0 mm 1 mps 716 mmHg 83%
23:00 +4°C° 0 mm 1 mps 716 mmHg 83%

2 March, Tuesday

Time Temperature Precipitation Wind Pressure Humidity
00:00 +4°C° 0 mm 1 mps 716 mmHg 82%
01:00 +4°C° 0 mm 1 mps 716 mmHg 81%
02:00 +4°C° 0 mm 1 mps 716 mmHg 80%
03:00 +2°C° 0 mm 0 mps 716 mmHg 80%
04:00 +2°C° 0 mm 0 mps 716 mmHg 79%
05:00 +2°C° 0 mm 0 mps 716 mmHg 78%
06:00 +2°C° 0 mm 0 mps 716 mmHg 78%
07:00 +4°C° 0 mm 0 mps 716 mmHg 72%
08:00 +6°C° 0 mm 0 mps 717 mmHg 66%
09:00 +9°C° 0 mm 1 mps 717 mmHg 61%
10:00 +11°C° 0 mm 1 mps 717 mmHg 57%
11:00 +12°C° 0 mm 1 mps 717 mmHg 53%
12:00 +14°C° 0 mm 1 mps 718 mmHg 49%
13:00 +14°C° 0 mm 1 mps 718 mmHg 50%
14:00 +14°C° 0 mm 1 mps 717 mmHg 52%
15:00 +14°C° 0 mm 1 mps 717 mmHg 53%
16:00 +12°C° 0 mm 1 mps 717 mmHg 60%
17:00 +10°C° 0 mm 1 mps 717 mmHg 67%
18:00 +7°C° 0 mm 0 mps 717 mmHg 74%
19:00 +6°C° 0 mm 0 mps 718 mmHg 73%
20:00 +6°C° 0 mm 0 mps 718 mmHg 72%
21:00 +6°C° 0 mm 1 mps 718 mmHg 71%
22:00 +6°C° 0 mm 1 mps 718 mmHg 70%
23:00 +6°C° 0 mm 1 mps 718 mmHg 69%

3 March, Wednesday

Time Temperature Precipitation Wind Pressure Humidity
00:00 +5°C° 0 mm 1 mps 718 mmHg 67%
01:00 +5°C° 0 mm 1 mps 718 mmHg 66%
02:00 +5°C° 0 mm 1 mps 718 mmHg 65%
03:00 +5°C° 0 mm 1 mps 718 mmHg 64%
04:00 +5°C° 0 mm 1 mps 718 mmHg 63%
05:00 +4°C° 0 mm 1 mps 718 mmHg 62%
06:00 +4°C° 0 mm 1 mps 718 mmHg 62%
07:00 +6°C° 0 mm 1 mps 718 mmHg 59%
08:00 +8°C° 0 mm 1 mps 719 mmHg 56%
09:00 +10°C° 0 mm 0 mps 719 mmHg 53%
10:00 +12°C° 0 mm 1 mps 719 mmHg 50%
11:00 +13°C° 0 mm 1 mps 719 mmHg 47%
12:00 +15°C° 0 mm 1 mps 719 mmHg 44%
13:00 +15°C° 0 mm 1 mps 718 mmHg 46%
14:00 +15°C° 0 mm 1 mps 718 mmHg 48%
15:00 +15°C° 0 mm 1 mps 718 mmHg 50%
16:00 +13°C° 0 mm 1 mps 718 mmHg 57%
17:00 +11°C° 0 mm 1 mps 717 mmHg 65%
18:00 +9°C° 0 mm 1 mps 717 mmHg 73%
19:00 +8°C° 0 mm 1 mps 717 mmHg 73%
20:00 +8°C° 0 mm 1 mps 717 mmHg 74%
21:00 +7°C° 0 mm 1 mps 717 mmHg 75%
22:00 +7°C° 0 mm 1 mps 717 mmHg 74%
23:00 +7°C° 0 mm 1 mps 717 mmHg 73%
Show more